• In Portugal
  • List of Countries
  • For 7 days
  • Water Temperature
  • Satellite Maps
  • Weather Map
  • Weather Widgets
  • user-avatar
    Login

    Hourly Weather Fontvieille

    Today, 11 December, Monday

    Time Temperature Precipitation Wind Pressure Humidity
    00:00 +9°C° 0 mm 5 mps 744 mmHg 95%
    01:00 +9°C° 2.1 mm 6 mps 744 mmHg 95%
    02:00 +10°C° 2.1 mm 6 mps 743 mmHg 96%
    03:00 +10°C° 2.1 mm 7 mps 743 mmHg 97%
    04:00 +10°C° 3 mm 7 mps 742 mmHg 96%
    05:00 +11°C° 3 mm 8 mps 742 mmHg 96%
    06:00 +11°C° 0 mm 9 mps 741 mmHg 97%
    07:00 +11°C° 4.9 mm 9 mps 741 mmHg 96%
    08:00 +11°C° 4.9 mm 10 mps 740 mmHg 96%
    09:00 +11°C° 4.9 mm 10 mps 740 mmHg 95%
    10:00 +12°C° 5.6 mm 10 mps 740 mmHg 95%
    11:00 +12°C° 5.6 mm 10 mps 740 mmHg 96%
    12:00 +12°C° 5.6 mm 10 mps 739 mmHg 96%
    13:00 +12°C° 4.4 mm 10 mps 739 mmHg 96%
    14:00 +12°C° 4.4 mm 10 mps 739 mmHg 96%
    15:00 +12°C° 4.4 mm 10 mps 739 mmHg 96%
    16:00 +12°C° 3.4 mm 9 mps 739 mmHg 96%
    17:00 +12°C° 3.4 mm 9 mps 739 mmHg 97%
    18:00 +12°C° 3.4 mm 8 mps 740 mmHg 97%
    19:00 +11°C° 1.4 mm 8 mps 740 mmHg 96%
    20:00 +11°C° 1.4 mm 8 mps 741 mmHg 95%
    21:00 +11°C° 1.4 mm 7 mps 742 mmHg 94%
    22:00 +10°C° 0 mm 7 mps 743 mmHg 93%
    23:00 +9°C° 0 mm 7 mps 744 mmHg 91%

    Tomorrow, 12 December, Tuesday

    Time Temperature Precipitation Wind Pressure Humidity
    00:00 +8°C° 0 mm 7 mps 745 mmHg 90%
    01:00 +8°C° 0 mm 7 mps 746 mmHg 88%
    02:00 +7°C° 0 mm 6 mps 747 mmHg 86%
    03:00 +7°C° 0 mm 6 mps 748 mmHg 83%
    04:00 +7°C° 0 mm 6 mps 748 mmHg 82%
    05:00 +5°C° 0 mm 6 mps 749 mmHg 80%
    06:00 +6°C° 0 mm 5 mps 750 mmHg 79%
    07:00 +7°C° 0 mm 5 mps 751 mmHg 77%
    08:00 +8°C° 0 mm 5 mps 751 mmHg 75%
    09:00 +8°C° 0 mm 5 mps 752 mmHg 73%
    10:00 +9°C° 0 mm 5 mps 752 mmHg 70%
    11:00 +10°C° 0 mm 5 mps 752 mmHg 67%
    12:00 +11°C° 0 mm 6 mps 753 mmHg 64%
    13:00 +10°C° 0 mm 6 mps 753 mmHg 67%
    14:00 +9°C° 0 mm 6 mps 753 mmHg 70%
    15:00 +9°C° 0 mm 6 mps 754 mmHg 74%
    16:00 +8°C° 0 mm 6 mps 754 mmHg 73%
    17:00 +6°C° 0 mm 5 mps 755 mmHg 72%
    18:00 +5°C° 0 mm 5 mps 756 mmHg 72%
    19:00 +5°C° 0 mm 5 mps 756 mmHg 69%
    20:00 +3°C° 0 mm 5 mps 757 mmHg 66%
    21:00 +3°C° 0 mm 5 mps 757 mmHg 63%
    22:00 +3°C° 0 mm 5 mps 758 mmHg 62%
    23:00 +4°C° 0 mm 4 mps 758 mmHg 61%

    Day after tomorrow, 13 December, Wednesday

    Time Temperature Precipitation Wind Pressure Humidity
    00:00 +3°C° 0 mm 4 mps 758 mmHg 60%
    01:00 +3°C° 0 mm 4 mps 759 mmHg 59%
    02:00 +3°C° 0 mm 3 mps 759 mmHg 57%
    03:00 +3°C° 0 mm 3 mps 759 mmHg 55%
    04:00 +3°C° 0 mm 3 mps 759 mmHg 54%
    05:00 +3°C° 0 mm 3 mps 759 mmHg 53%
    06:00 +3°C° 0 mm 3 mps 760 mmHg 51%
    07:00 +5°C° 0 mm 2 mps 760 mmHg 50%
    08:00 +7°C° 0 mm 2 mps 760 mmHg 49%
    09:00 +8°C° 0 mm 2 mps 761 mmHg 47%
    10:00 +9°C° 0 mm 2 mps 760 mmHg 49%
    11:00 +10°C° 0 mm 2 mps 760 mmHg 50%
    12:00 +11°C° 0 mm 3 mps 760 mmHg 51%
    13:00 +10°C° 0 mm 3 mps 760 mmHg 56%
    14:00 +10°C° 0 mm 3 mps 759 mmHg 61%
    15:00 +8°C° 0 mm 4 mps 759 mmHg 66%
    16:00 +7°C° 0 mm 4 mps 759 mmHg 65%
    17:00 +6°C° 0 mm 4 mps 759 mmHg 64%
    18:00 +5°C° 0 mm 5 mps 759 mmHg 63%
    19:00 +5°C° 0 mm 5 mps 759 mmHg 62%
    20:00 +4°C° 0 mm 6 mps 759 mmHg 62%
    21:00 +5°C° 0 mm 6 mps 759 mmHg 61%
    22:00 +5°C° 0 mm 7 mps 759 mmHg 65%
    23:00 +5°C° 0 mm 7 mps 758 mmHg 69%

    14 December, Thursday

    Time Temperature Precipitation Wind Pressure Humidity
    00:00 +6°C° 0 mm 7 mps 758 mmHg 72%
    01:00 +6°C° 0.1 mm 7 mps 757 mmHg 76%
    02:00 +6°C° 0.1 mm 7 mps 757 mmHg 79%
    03:00 +8°C° 0.1 mm 7 mps 756 mmHg 83%
    04:00 +8°C° 0.2 mm 7 mps 756 mmHg 84%
    05:00 +8°C° 0.2 mm 7 mps 756 mmHg 85%
    06:00 +8°C° 0.2 mm 7 mps 755 mmHg 87%
    07:00 +9°C° 0.1 mm 7 mps 755 mmHg 85%
    08:00 +9°C° 0.1 mm 7 mps 755 mmHg 82%
    09:00 +10°C° 0.1 mm 7 mps 754 mmHg 80%
    10:00 +11°C° 0 mm 8 mps 754 mmHg 77%
    11:00 +12°C° 0 mm 8 mps 754 mmHg 74%
    12:00 +13°C° 0 mm 8 mps 753 mmHg 70%
    13:00 +12°C° 0 mm 8 mps 753 mmHg 72%
    14:00 +11°C° 0 mm 8 mps 753 mmHg 74%
    15:00 +11°C° 0 mm 8 mps 753 mmHg 76%
    16:00 +10°C° 0 mm 8 mps 752 mmHg 76%
    17:00 +9°C° 0 mm 8 mps 752 mmHg 76%
    18:00 +7°C° 0 mm 8 mps 752 mmHg 76%
    19:00 +7°C° 0 mm 8 mps 752 mmHg 75%
    20:00 +7°C° 0 mm 8 mps 752 mmHg 75%
    21:00 +7°C° 0 mm 8 mps 752 mmHg 75%
    22:00 +7°C° 0 mm 8 mps 751 mmHg 76%
    23:00 +7°C° 0 mm 8 mps 751 mmHg 76%

    15 December, Friday

    Time Temperature Precipitation Wind Pressure Humidity
    00:00 +7°C° 0 mm 8 mps 751 mmHg 77%
    01:00 +7°C° 0.1 mm 8 mps 750 mmHg 79%
    02:00 +7°C° 0.1 mm 8 mps 749 mmHg 81%
    03:00 +8°C° 0.1 mm 7 mps 749 mmHg 82%
    04:00 +8°C° 0 mm 7 mps 748 mmHg 83%
    05:00 +8°C° 0 mm 7 mps 748 mmHg 83%
    06:00 +8°C° 0 mm 7 mps 747 mmHg 83%
    07:00 +7°C° 0 mm 8 mps 747 mmHg 81%
    08:00 +9°C° 0 mm 8 mps 747 mmHg 78%
    09:00 +9°C° 0 mm 8 mps 747 mmHg 76%
    10:00 +10°C° 0 mm 8 mps 747 mmHg 68%
    11:00 +10°C° 0 mm 8 mps 747 mmHg 61%
    12:00 +11°C° 0 mm 9 mps 747 mmHg 53%
    13:00 +10°C° 0 mm 8 mps 747 mmHg 55%
    14:00 +9°C° 0 mm 8 mps 747 mmHg 57%
    15:00 +7°C° 0 mm 8 mps 747 mmHg 59%
    16:00 +6°C° 0 mm 8 mps 748 mmHg 60%
    17:00 +5°C° 0 mm 8 mps 748 mmHg 62%
    18:00 +2°C° 0 mm 8 mps 749 mmHg 63%
    19:00 +2°C° 0 mm 8 mps 749 mmHg 61%
    20:00 +3°C° 0 mm 7 mps 750 mmHg 59%
    21:00 +3°C° 0 mm 7 mps 751 mmHg 56%
    22:00 +3°C° 0 mm 6 mps 751 mmHg 55%
    23:00 +3°C° 0 mm 6 mps 751 mmHg 53%

    16 December, Saturday

    Time Temperature Precipitation Wind Pressure Humidity
    00:00 +2°C° 0 mm 5 mps 752 mmHg 51%
    01:00 +2°C° 0 mm 5 mps 752 mmHg 49%
    02:00 +3°C° 0 mm 4 mps 753 mmHg 47%
    03:00 +3°C° 0 mm 4 mps 753 mmHg 45%
    04:00 +3°C° 0 mm 4 mps 753 mmHg 44%
    05:00 +3°C° 0 mm 3 mps 754 mmHg 43%
    06:00 +2°C° 0 mm 3 mps 754 mmHg 41%
    07:00 +4°C° 0 mm 3 mps 755 mmHg 40%
    08:00 +5°C° 0 mm 3 mps 755 mmHg 39%
    09:00 +7°C° 0 mm 3 mps 755 mmHg 38%
    10:00 +8°C° 0 mm 3 mps 755 mmHg 37%
    11:00 +9°C° 0 mm 2 mps 755 mmHg 35%
    12:00 +10°C° 0 mm 2 mps 755 mmHg 34%
    13:00 +9°C° 0 mm 2 mps 755 mmHg 39%
    14:00 +9°C° 0 mm 2 mps 755 mmHg 43%
    15:00 +8°C° 0 mm 2 mps 755 mmHg 48%
    16:00 +7°C° 0 mm 2 mps 756 mmHg 50%
    17:00 +5°C° 0 mm 2 mps 757 mmHg 52%
    18:00 +4°C° 0 mm 2 mps 757 mmHg 55%
    19:00 +4°C° 0 mm 2 mps 758 mmHg 54%
    20:00 +4°C° 0 mm 2 mps 758 mmHg 53%
    21:00 +3°C° 0 mm 3 mps 758 mmHg 52%
    22:00 +3°C° 0 mm 3 mps 758 mmHg 52%
    23:00 +3°C° 0 mm 3 mps 758 mmHg 51%
    Show more